Weather History for Mullan Pass, ID

Change the Weather History Date:

Friday, January 4, 2013

  Actual Average (K3TH) Record (K3TH)
Temperature  
Mean Temperature 21 °F -  
Max Temperature 25 °F 33 °F 36 °F (2002)
Min Temperature 17 °F 27 °F 21 °F (1999)
Degree Days  
Heating Degree Days 44    
Moisture  
Dew Point 20 °F    
Average Humidity 87    
Maximum Humidity 100    
Minimum Humidity 60    
Precipitation  
Precipitation 0.06 in - - ()
Sea Level Pressure  
Sea Level Pressure 30.22 in    
Wind  
Wind Speed 5 mph (WSW)    
Max Wind Speed 12 mph    
Max Gust Speed 23 mph    
Visibility 3 miles    
Events Fog , Rain , Snow    
Averages and records for this station are not official NWS values.
T = Trace of Precipitation, MM = Missing Value Source: NWS Daily Summary

Daily Weather History Graph

Daily Weather History Graph

Search for Another Location

Airport:

Trip Planner

Search our weather history database for the weather conditions in past years. The results will help you decide how hot, cold, wet, or windy it might be!

Date:

Astronomy

Jan. 04, 2013 Rise Set
Actual Time 7:30 AM PST 4:05 PM PST
Civil Twilight 6:54 AM PST 4:41 PM PST
Nautical Twilight 6:15 AM PST 5:20 PM PST
Astronomical Twilight 5:38 AM PST 5:57 PM PST
Moon No Moon Rise 10:42 AM PST (1/4)
Length of Visible Light 9h 46m
Length of Day
8h 35m
Waning Gibbous, 54% of the Moon is Illuminated
Jan 4
Waning Gibbous
Jan 4
Last Quarter
Jan 11
New
Jan 18
First Quarter
Jan 26
Full

Hourly Weather History & Observations

Time (PST) Temp. Windchill Dew Point Humidity Pressure Visibility Wind Dir Wind Speed Gust Speed Precip Events Conditions
12:53 AM 21.0 °F 10.6 °F 9.0 °F 60% 30.29 in 10.0 mi WSW 9.2 mph - N/A   Clear
1:53 AM 19.9 °F 12.1 °F 10.9 °F 68% 30.30 in 10.0 mi SW 5.8 mph - N/A   Overcast
2:53 AM 21.0 °F 12.4 °F 10.0 °F 63% 30.30 in 10.0 mi Variable 6.9 mph - N/A   Overcast
3:10 AM 21.2 °F 12.6 °F 10.4 °F 63% 30.15 in 10.0 mi Variable 6.9 mph - N/A   Overcast
3:53 AM 19.9 °F 10.1 °F 12.0 °F 71% 30.30 in 10.0 mi SSW 8.1 mph - N/A   Overcast
4:07 AM 19.4 °F 11.5 °F 12.2 °F 74% 30.15 in 10.0 mi SSW 5.8 mph - 0.00 in   Overcast
4:53 AM 19.0 °F 6.8 °F 15.1 °F 85% 30.33 in 7.0 mi SSW 11.5 mph 17.3 mph 0.00 in   Overcast
5:31 AM 17.6 °F 8.2 °F 15.8 °F 93% 30.15 in 5.0 mi Variable 6.9 mph - 0.00 in Rain Light Freezing Rain
5:38 AM 17.6 °F 7.3 °F 17.6 °F 100% 30.15 in 6.0 mi SW 8.1 mph - 0.00 in Rain Light Freezing Rain
5:53 AM 19.0 °F 7.5 °F 18.0 °F 96% 30.30 in 5.0 mi WSW 10.4 mph 17.3 mph 0.00 in Rain Light Freezing Rain
6:22 AM 19.4 °F 9.5 °F 17.6 °F 93% 30.14 in 10.0 mi SW 8.1 mph 19.6 mph 0.00 in   Overcast
6:39 AM 19.4 °F 10.4 °F 19.4 °F 100% 30.14 in 10.0 mi Variable 6.9 mph - 0.00 in   Overcast
6:53 AM 19.9 °F 7.9 °F 19.0 °F 96% 30.31 in 9.0 mi WSW 11.5 mph 23.0 mph 0.00 in   Overcast
7:53 AM 21.0 °F 10.6 °F 19.0 °F 92% 30.31 in 10.0 mi WSW 9.2 mph 17.3 mph N/A   Overcast
8:22 AM 19.4 °F 11.5 °F 19.4 °F 100% 30.15 in 4.0 mi Variable 5.8 mph - 0.00 in Rain Light Freezing Rain
8:31 AM 19.4 °F 9.5 °F 19.4 °F 100% 30.16 in 5.0 mi WSW 8.1 mph - 0.00 in Rain Light Freezing Rain
8:47 AM 21.2 °F 13.6 °F 19.4 °F 93% 30.16 in 1.8 mi Variable 5.8 mph - 0.00 in Rain Light Freezing Rain
8:53 AM 21.0 °F 13.4 °F 19.9 °F 96% 30.32 in 1.2 mi WSW 5.8 mph - 0.00 in Rain Light Freezing Rain
9:02 AM 21.2 °F 12.6 °F 21.2 °F 100% 30.16 in 0.5 mi WSW 6.9 mph - 0.00 in Fog , Rain Light Freezing Rain
9:25 AM 21.2 °F 10.1 °F 21.2 °F 100% 30.16 in 0.2 mi WSW 10.4 mph - 0.00 in Fog , Rain Light Freezing Rain
9:44 AM 21.2 °F 11.7 °F 21.2 °F 100% 30.16 in 0.2 mi WSW 8.1 mph - 0.00 in Fog , Snow Light Snow
9:53 AM 21.9 °F 14.5 °F 21.0 °F 96% 30.34 in 0.2 mi Variable 5.8 mph - 0.00 in Fog Light Freezing Fog
10:33 AM 23.0 °F 15.8 °F 21.2 °F 93% 30.16 in 0.2 mi Variable 5.8 mph 18.4 mph 0.00 in Fog , Rain Light Freezing Rain
10:53 AM 24.1 °F 18.2 °F 21.9 °F 91% 30.32 in 0.2 mi Variable 4.6 mph - 0.00 in Fog , Snow Light Snow
11:02 AM 24.8 °F 20.5 °F 21.2 °F 86% 30.16 in 0.2 mi Variable 3.5 mph - 0.00 in Fog , Snow Light Snow
11:53 AM 24.1 °F 17.0 °F 21.9 °F 91% 30.31 in 0.2 mi Variable 5.8 mph - 0.00 in Fog , Snow Light Snow
12:53 PM 25.0 °F 20.7 °F 21.9 °F 88% 30.30 in 0.2 mi Variable 3.5 mph - 0.01 in Fog , Snow Light Snow
1:40 PM 24.8 °F 20.5 °F 21.2 °F 86% 30.15 in 0.2 mi Variable 3.5 mph - 0.01 in Fog , Snow Light Snow
1:53 PM 25.0 °F 20.7 °F 21.9 °F 88% 30.30 in 0.2 mi Variable 3.5 mph - 0.01 in Fog , Snow Light Snow
2:53 PM 25.0 °F 20.7 °F 21.9 °F 88% 30.31 in 0.2 mi Variable 3.5 mph - 0.01 in Fog , Snow Light Snow
3:41 PM 24.8 °F 20.5 °F 21.2 °F 86% 30.17 in 0.2 mi NW 3.5 mph - 0.01 in Fog , Snow Light Snow
3:53 PM 24.1 °F - 21.0 °F 88% 30.33 in 0.2 mi Calm Calm - 0.01 in Fog , Snow Light Snow
4:15 PM 24.8 °F 20.5 °F 21.2 °F 86% 30.17 in 0.5 mi Variable 3.5 mph - 0.00 in Fog , Snow Light Snow
4:43 PM 24.8 °F - 21.2 °F 86% 30.17 in 0.5 mi Calm Calm - 0.00 in Fog , Snow Light Snow
4:53 PM 24.1 °F - 21.0 °F 88% 30.34 in 0.8 mi Calm Calm - 0.00 in Snow Light Snow
5:15 PM 24.8 °F - 21.2 °F 86% 30.17 in 1.0 mi Calm Calm - 0.01 in Snow Light Snow
5:41 PM 24.8 °F - 21.2 °F 86% 30.17 in 1.5 mi Calm Calm - 0.02 in Snow Light Snow
5:44 PM 24.8 °F - 19.4 °F 80% 30.17 in 3.0 mi Calm Calm - 0.02 in Snow Light Snow
5:53 PM 24.1 °F - 21.0 °F 88% 30.33 in 1.8 mi Calm Calm - 0.02 in Snow Light Snow
6:02 PM 24.8 °F - 21.2 °F 86% 30.17 in 1.2 mi Calm Calm - 0.00 in Snow Light Snow
6:12 PM 24.8 °F - 19.4 °F 80% 30.17 in 1.2 mi Calm Calm - 0.00 in Snow Light Snow
6:45 PM 24.8 °F - 21.2 °F 86% 30.17 in 1.8 mi Calm Calm - 0.00 in Snow Light Snow
6:49 PM 24.8 °F 20.5 °F 19.4 °F 80% 30.17 in 3.0 mi SW 3.5 mph - 0.00 in Snow Light Snow
6:53 PM 24.1 °F - 21.0 °F 88% 30.34 in 5.0 mi Calm Calm - 0.00 in   Overcast
7:02 PM 24.8 °F 20.5 °F 21.2 °F 86% 30.17 in 9.0 mi SW 3.5 mph - N/A   Overcast
7:10 PM 24.8 °F 19.1 °F 21.2 °F 86% 30.17 in 8.0 mi SW 4.6 mph - N/A   Overcast
7:22 PM 24.8 °F 19.1 °F 21.2 °F 86% 30.17 in 1.8 mi WSW 4.6 mph - 0.00 in Snow Light Snow
7:31 PM 24.8 °F 19.1 °F 21.2 °F 86% 30.17 in 2.0 mi WSW 4.6 mph - 0.00 in   Overcast
7:44 PM 24.8 °F 20.5 °F 21.2 °F 86% 30.17 in 1.8 mi WSW 3.5 mph - 0.00 in   Overcast
7:53 PM 25.0 °F - 23.0 °F 92% 30.32 in 3.0 mi Calm Calm - 0.00 in   Overcast
8:40 PM 24.8 °F - 23.0 °F 93% 30.17 in 10.0 mi Calm Calm - N/A   Overcast
8:53 PM 25.0 °F - 21.9 °F 88% 30.32 in 10.0 mi Calm Calm - N/A   Mostly Cloudy
9:13 PM 24.8 °F 20.5 °F 21.2 °F 86% 30.17 in 4.0 mi SW 3.5 mph - N/A   Mostly Cloudy
9:28 PM 24.8 °F 19.1 °F 21.2 °F 86% 30.17 in 1.8 mi SW 4.6 mph - N/A   Overcast
9:35 PM 24.8 °F 20.5 °F 21.2 °F 86% 30.17 in 0.8 mi SSW 3.5 mph - N/A   Overcast
9:46 PM 24.8 °F - 21.2 °F 86% 30.18 in 1.0 mi Calm Calm - N/A   Mist
9:53 PM 24.1 °F - 21.0 °F 88% 30.33 in 1.0 mi Calm Calm - N/A   Mist
10:03 PM 24.8 °F - 21.2 °F 86% 30.19 in 0.8 mi Calm Calm - N/A   Mist
10:14 PM 24.8 °F - 21.2 °F 86% 30.19 in 1.0 mi Calm Calm - N/A   Mist
10:23 PM 24.8 °F - 21.2 °F 86% 30.19 in 0.5 mi Calm Calm - N/A Fog Light Freezing Fog
10:43 PM 24.8 °F 20.5 °F 21.2 °F 86% 30.19 in 0.2 mi WNW 3.5 mph - N/A Fog Light Freezing Fog
10:51 PM 24.8 °F - 21.2 °F 86% 30.19 in 0.5 mi Calm Calm - N/A Fog Light Freezing Fog
10:53 PM 24.1 °F 19.7 °F 21.9 °F 91% 30.34 in 0.5 mi WNW 3.5 mph - N/A Fog Light Freezing Fog
11:41 PM 24.8 °F - 21.2 °F 86% 30.20 in 0.2 mi Calm Calm - N/A Fog Light Freezing Fog
11:53 PM 24.1 °F - 21.9 °F 91% 30.34 in 0.5 mi Calm Calm - N/A Fog Light Freezing Fog